Regional Weather Roundup
Issued by NWS

Home | Current Version | Previous Version | Graphics & Text | Print | Product List | Glossary On
Versions: 1 2 3 4 5 6 7 8 9 10 11 12 13 14 15 16 17 18 19 20 21 22 23 24 25 26 27
000
ASUS45 KBOI 190310
RWRID

IDAHO REGIONAL WEATHER ROUNDUP
NATIONAL WEATHER SERVICE BOISE ID
800 PM MST SAT FEB 18 2017

NOTE: "FAIR" INDICATES FEW OR NO CLOUDS BELOW 12000 FEET
WITH NO SIGNIFICANT WEATHER AND/OR OBSTRUCTIONS TO VISIBILITY

IDZ012-014-190400-
SOUTHWEST IDAHO


CITY           SKY/WX    TMP DP  RH WIND       PRES   REMARKS
BOISE          RAIN      47  41  80 SW13      29.47R
CALDWELL       LGT RAIN  44  42  93 W9        29.47R
MOUNTAIN HOME  CLOUDY    42  42 100 SE9       29.46R
$$

IDZ016-017-190400-
SOUTHCENTRAL IDAHO


CITY           SKY/WX    TMP DP  RH WIND       PRES   REMARKS
BURLEY         CLOUDY    47  35  63 CALM      29.50S
JEROME         LGT RAIN  40  37  89 E9        29.50S WCI  34
TWIN FALLS     CLOUDY    47  34  60 S15G23    29.48S
$$

IDZ019>023-190400-
SOUTHEAST IDAHO


CITY           SKY/WX    TMP DP  RH WIND       PRES   REMARKS
IDAHO FALLS    LGT RAIN  41  36  82 S10       29.58F
POCATELLO      CLOUDY    46  36  68 S12       29.57S
REXBURG        CLOUDY    38  34  85 S3        29.57F
$$

IDZ006-010-011-018-031-032-190400-
CENTRAL IDAHO MOUNTAINS


CITY           SKY/WX    TMP DP  RH WIND       PRES   REMARKS
MCCALL         LGT SNOW  34  31  88 S12       29.41R FOG     WCI  25
HAILEY         DRIZZLE   36  36 100 SE8       29.53S WCI  29
STANLEY          N/A     34  32  92 S9        29.46S WCI  27
SALMON         CLOUDY    39  34  81 S8        29.43S WCI  34
CHALLIS        CLOUDY    37  32  82 NW5       29.45S WCI  33
$$

IDZ002-004-006-007-026-190400-
NORTHERN IDAHO


CITY           SKY/WX    TMP DP  RH WIND       PRES   REMARKS
LEWISTON       LGT RAIN  41  39  93 SW5       29.43R
LOWELL           N/A     36  33  89 N3        29.40R
COEUR D`ALENE  LGT RAIN  33  33 100 S3        29.40S VSB 3/4
MULLAN PASS    SNOW      31  31 100 VRB3      29.33R VSB 1/2
$$




USA.gov is the U.S. government's official web portal to all federal, state and local government web resources and services.